Probability
0 0 0 0 0 0 0 0 0 0 0 0 0 0 0 0 0 0 0 0 0 0 0 0 0 0 0 0 0 0 0 0 0 0 0 0 0 0 0 1 2 3 3 3
0 0 0 0 0 0 0 0 0 0 0 0 0 0 0 0 0 0 0 0 0 0 0 0 0 0 0 0 0 0 0 0 0 0 0 0 0 0 0 0 1 2 3 3
0 0 0 0 0 0 0 0 0 0 0 0 0 0 0 0 0 0 0 0 0 0 0 0 0 0 0 0 0 0 0 0 0 0 0 0 0 0 0 0 0 1 2 2
0 0 0 0 0 0 0 0 0 0 0 0 0 0 0 0 0 0 0 0 0 0 0 0 0 0 0 0 0 0 0 0 0 0 0 0 0 0 0 0 0 0 1 1
0 0 0 0 0 0 0 0 0 0 0 0 0 0 0 0 0 0 0 0 0 0 0 0 0 0 0 0 0 0 0 0 0 0 0 0 0 0 0 0 0 0 0 0
0 0 0 0 0 0 0 0 0 0 0 0 0 0 0 0 0 0 0 0 0 0 0 0 0 0 0 0 0 0 0 0 0 0 0 0 0 0 0 0 0 0 0 0
0 0 0 0 0 0 0 0 0 0 0 0 0 0 0 0 0 0 0 0 0 0 0 0 0 0 0 0 0 0 0 0 0 0 0 0 0 0 0 0 0 0 0 0
0 0 0 0 0 0 0 0 0 0 0 0 0 0 0 0 0 0 0 0 0 0 0 0 0 0 0 0 0 0 0 0 0 0 0 0 0 0 0 0 0 0 0 0
0 0 0 0 0 0 0 0 0 0 0 0 0 0 0 0 0 0 0 0 0 0 0 0 0 0 0 0 0 0 0 0 0 0 0 0 0 0 0 0 0 0 0 0
0 0 0 0 0 0 0 0 0 0 0 0 0 0 0 0 0 0 0 0 0 0 0 0 0 0 0 0 0 0 0 0 0 0 0 0 0 0 0 0 0 0 0 0
0 0 0 0 0 0 0 0 0 0 0 0 0 0 0 0 0 0 0 0 0 0 0 0 0 0 0 0 0 0 0 0 0 0 0 0 0 0 0 0 0 0 0 0
0 0 0 0 0 0 0 0 0 0 0 0 0 0 0 0 0 0 0 0 0 0 0 0 0 0 0 0 0 0 0 0 0 0 0 0 0 0 0 0 0 0 0 0
0 0 0 0 0 0 0 0 0 0 0 0 0 0 0 0 0 0 0 0 0 0 0 0 0 0 0 0 0 0 0 0 0 0 0 0 0 0 0 0 0 0 0 0
0 0 0 0 0 0 0 0 0 0 0 0 0 0 0 0 0 0 0 0 0 0 0 0 0 0 0 0 0 0 0 0 0 0 0 0 0 0 0 0 0 0 0 0
0 0 0 0 0 0 0 0 0 0 0 0 0 0 0 0 0 0 0 0 0 0 0 0 0 0 0 0 0 0 0 0 0 0 0 0 0 0 0 0 0 0 0 0
0 0 0 0 0 0 0 0 0 0 0 0 0 0 0 0 0 0 0 0 0 0 0 0 0 0 0 0 0 0 0 0 0 0 0 0 0 0 0 0 0 0 0 0
0 0 0 0 0 0 0 0 0 0 0 0 0 0 0 0 0 0 0 0 0 0 0 0 0 0 0 0 0 0 0 0 0 0 0 0 0 0 0 0 0 0 0 0
0 0 0 0 0 0 0 0 0 0 0 0 0 0 0 0 0 0 0 0 0 0 0 0 0 0 0 0 0 0 0 0 0 0 0 0 0 0 0 0 0 0 0 0
0 0 0 0 0 0 0 0 0 0 0 0 0 0 0 0 0 0 0 0 0 0 0 0 0 0 0 0 0 0 0 0 0 0 0 0 0 0 0 0 0 0 0 0
0 0 0 0 0 0 0 0 0 0 0 0 0 0 0 0 0 0 0 0 0 0 0 0 0 0 0 0 0 0 0 0 0 0 0 0 0 0 0 0 0 0 0 0
0 0 0 0 0 0 0 0 0 0 0 0 0 0 0 0 0 0 0 0 0 0 0 0 0 0 0 0 0 0 0 0 0 0 0 0 0 0 0 0 0 0 0 0
0 0 0 0 0 0 0 0 0 0 0 0 0 0 0 0 0 0 0 0 0 0 0 0 0 0 0 0 0 0 0 0 0 0 0 0 0 0 0 0 0 0 0 0
0 0 0 0 0 0 0 0 0 0 0 0 0 0 0 0 0 0 0 0 0 0 0 0 0 0 0 0 0 0 0 0 0 0 0 0 0 0 0 0 0 0 0 0
0 0 0 0 0 0 0 0 0 0 0 0 0 0 0 0 0 0 0 0 0 0 0 0 0 0 0 0 0 0 0 0 0 0 0 0 0 0 0 0 0 0 0 0
0 0 0 0 0 0 0 0 0 0 0 0 0 0 0 0 0 0 0 0 0 0 0 0 0 0 0 0 0 0 0 0 0 0 0 0 0 0 0 0 0 0 0 0
0 0 0 0 0 0 0 0 0 0 0 0 0 0 0 0 0 0 0 0 0 0 0 0 0 0 0 0 0 0 0 0 0 0 0 0 0 0 0 0 0 0 0 0
0 0 0 0 0 0 0 0 0 0 0 0 0 0 0 0 0 0 0 0 0 0 0 0 0 0 0 0 0 0 0 0 0 0 0 0 0 0 0 0 0 0 0 0
Wind_Speed
6 5 3 5 6 6 9 9 9 9 10 12 8 7 6 5 5 5 5 5 4 5 5 5 5 5 5 5 5 4 4 4 4 4 3 3 3 4 3 2 2 1 1 2
4 3 4 7 9 10 10 9 11 11 14 9 6 4 5 5 5 6 6 6 5 5 5 5 5 5 6 5 5 4 4 4 4 3 3 3 4 4 3 2 2 1 1 1
4 3 4 9 9 10 8 8 8 12 11 5 6 6 6 6 5 5 6 6 6 5 5 6 5 5 5 5 4 4 4 4 3 3 3 4 4 4 3 2 2 1 1 1
2 2 7 8 2 6 7 8 8 8 7 6 7 7 6 5 5 5 5 6 5 5 5 5 4 4 4 4 3 4 4 3 3 3 3 4 3 3 3 2 2 2 2 2
2 3 10 8 3 4 5 7 7 9 8 6 4 4 4 3 3 4 5 5 5 4 4 4 4 4 3 3 3 3 4 3 3 3 4 3 3 3 3 2 2 2 2 2
3 3 8 6 1 2 3 6 4 5 6 3 1 3 5 3 3 4 4 4 4 4 3 4 4 4 2 3 3 4 4 4 3 3 3 3 3 3 2 2 2 3 3 2
5 6 11 6 2 3 3 7 2 3 4 3 4 6 5 5 5 3 3 3 3 3 3 3 4 3 2 3 3 4 4 3 3 3 3 3 3 2 2 2 2 2 3 3
5 6 11 3 5 6 7 2 1 2 3 4 5 4 4 5 5 4 3 3 3 3 3 3 3 2 2 3 3 3 3 3 3 4 3 3 2 2 2 2 2 2 2 3
10 10 5 5 6 5 2 3 3 3 3 3 4 4 4 4 4 4 3 3 3 3 4 4 3 2 2 3 3 2 2 3 3 4 3 3 2 2 2 1 1 2 2 2
7 10 6 6 6 5 4 5 4 3 4 3 4 5 5 4 4 3 3 3 3 3 3 4 4 3 2 3 2 2 2 3 3 3 3 3 3 2 2 2 2 2 2 2
8 8 6 6 6 6 5 4 3 3 4 4 4 5 4 4 4 3 3 3 2 3 4 5 4 3 2 2 1 2 2 2 3 3 3 3 3 3 3 2 2 2 2 2
9 6 5 6 4 3 4 5 5 4 4 4 4 5 4 4 4 3 3 3 3 3 4 4 3 3 2 2 1 1 2 2 2 2 2 2 2 3 6 5 6 6 5 4
6 3 4 5 3 2 3 4 4 4 4 4 4 4 4 3 3 2 3 3 3 4 4 3 3 3 2 2 1 0 1 2 1 2 2 2 2 2 3 5 6 7 8 8
4 2 3 4 4 3 3 2 2 2 3 3 3 3 3 2 2 3 3 3 3 3 3 2 2 3 2 1 1 1 1 2 2 1 1 1 2 2 2 2 3 4 6 8
5 5 5 3 2 2 1 1 1 3 3 3 2 2 2 3 3 3 3 2 2 2 2 2 2 3 2 1 1 1 1 1 1 1 1 1 2 2 2 2 2 3 3 5
3 4 4 3 4 3 2 2 3 4 3 3 3 3 3 3 3 3 2 1 1 3 3 2 2 2 1 1 1 1 1 2 2 1 1 1 1 2 2 2 2 3 3 4
3 4 4 4 5 4 4 4 4 4 3 3 4 3 2 1 2 2 2 2 2 3 3 2 2 1 1 0 0 0 1 1 3 2 1 1 1 1 2 2 2 2 3 4
7 7 6 5 5 5 5 4 4 4 4 3 3 2 2 2 3 3 2 2 2 2 2 1 1 1 0 0 0 0 0 1 1 1 1 1 1 1 2 2 2 3 3 4
5 5 4 5 5 4 4 4 4 3 3 2 2 3 3 3 3 2 2 1 2 2 2 1 1 1 0 0 1 0 0 1 1 1 1 2 2 2 2 2 2 2 3 3
3 3 3 3 3 3 4 3 3 2 2 2 2 2 2 3 2 2 2 2 3 2 2 2 0 1 0 0 1 1 1 1 1 1 1 1 1 1 1 2 2 2 2 3
3 3 3 3 2 2 3 3 3 3 3 3 3 3 3 3 2 2 2 2 2 1 1 1 0 1 1 1 1 1 1 0 0 1 1 1 1 1 1 2 2 2 2 2
2 2 2 2 2 2 2 2 2 3 2 2 2 2 2 2 2 2 2 3 2 2 0 0 0 1 1 1 1 1 1 0 0 0 1 1 1 1 1 2 2 2 2 2
2 2 2 2 2 2 1 1 2 3 3 3 3 3 3 3 2 2 2 2 1 2 0 1 1 1 1 2 1 1 1 0 0 0 0 0 0 1 1 1 2 2 2 2
2 1 1 1 1 1 1 2 2 2 2 2 3 3 2 2 1 2 2 2 2 1 0 1 2 1 2 2 1 1 1 0 0 0 0 0 0 1 1 1 1 2 2 2
2 2 1 1 1 2 2 1 1 1 1 1 2 2 2 2 2 1 1 1 2 1 0 1 1 2 2 1 1 1 0 0 0 0 0 0 1 1 1 1 1 2 2 2
2 2 2 2 2 2 1 1 1 1 1 1 1 1 1 1 1 1 1 1 1 1 1 0 1 1 1 1 1 1 0 0 1 1 1 1 1 1 1 1 2 2 2 2
1 1 1 1 1 1 1 2 2 2 2 2 1 1 1 1 1 1 1 1 1 1 1 1 1 1 1 1 0 0 0 0 0 0 1 1 1 1 1 2 2 1 1 2
Wind_Direction
254 257 242 243 243 212 210 216 226 251 256 271 284 287 290 293 298 304 307 307 305 309 312 315 319 323 325 319 321 324 327 321 309 306 312 320 324 314 310 306 298 288 286 280
278 257 254 264 252 234 234 234 241 262 270 271 284 288 292 294 292 294 299 302 307 313 316 314 316 319 323 318 322 328 323 315 317 324 326 325 325 323 322 315 309 298 283 288
274 310 320 270 237 214 218 217 209 237 254 292 301 293 282 281 281 279 289 298 302 304 305 305 309 313 313 313 320 324 321 325 328 326 326 329 330 326 324 316 322 315 302 290
280 12 249 250 218 203 219 241 227 244 264 267 269 280 273 266 263 279 291 297 298 300 302 306 309 313 314 315 320 323 325 329 329 327 326 328 325 326 329 331 333 327 317 305
172 257 276 286 248 183 199 263 228 235 260 277 299 311 288 257 253 264 276 287 290 292 294 302 308 314 321 322 326 330 330 329 328 324 324 327 326 328 325 330 336 330 315 311
170 224 253 259 248 158 117 282 247 216 246 267 359 307 280 296 304 301 304 298 299 305 307 309 313 320 325 325 333 328 325 325 328 327 324 321 317 320 328 333 333 331 334 334
206 237 263 256 192 128 167 258 276 210 236 214 210 233 273 304 306 302 305 306 311 313 311 307 312 323 324 326 320 317 328 337 341 337 327 319 326 331 335 341 345 342 344 337
185 223 255 201 146 191 224 262 250 241 242 232 245 273 292 297 299 307 315 320 323 321 315 316 317 318 309 308 311 324 338 346 345 340 335 340 344 337 334 347 358 355 358 345
199 221 243 186 206 226 221 241 243 241 255 241 254 268 283 290 292 299 305 311 322 317 314 318 320 312 290 301 318 335 349 348 343 343 343 340 338 332 332 342 356 349 353 348
251 260 254 244 248 253 239 236 247 243 251 241 249 263 274 285 292 298 303 309 317 317 311 311 317 315 289 303 328 348 345 340 346 349 343 343 341 337 337 337 339 339 347 345
249 267 290 268 237 242 243 241 258 264 249 244 246 260 260 272 278 279 289 299 298 293 294 299 306 308 309 317 344 353 341 344 346 343 338 343 347 342 337 325 320 327 320 317
230 226 216 254 253 229 228 241 242 250 264 261 242 252 259 264 268 269 274 287 292 293 293 297 302 305 312 319 327 348 341 343 336 332 339 348 352 357 360 356 356 359 356 348
232 237 229 255 267 243 236 250 250 242 246 263 264 250 253 261 267 269 272 276 277 281 289 294 301 306 310 317 314 317 307 316 321 333 340 340 345 357 353 359 5 10 10 5
227 217 249 238 245 247 241 256 265 267 264 257 257 258 255 259 266 266 267 273 281 286 290 292 303 304 304 312 317 333 315 317 330 320 322 327 335 342 342 344 348 356 2 5
226 220 233 247 251 254 242 234 267 278 282 284 266 257 252 251 257 270 278 283 294 293 294 300 304 305 318 330 341 336 326 323 332 334 341 343 346 349 350 348 354 348 348 357
247 235 224 225 238 245 251 247 258 271 274 277 282 272 266 260 266 276 277 268 267 282 287 293 293 300 321 344 356 346 336 344 356 1 3 1 357 357 359 356 357 354 348 345
203 226 221 229 237 243 244 243 243 254 260 266 273 278 278 280 285 281 283 280 274 274 274 272 278 297 310 345 354 337 352 351 359 6 1 354 351 355 356 354 354 348 341 342
214 219 214 218 225 236 247 248 245 245 245 251 263 259 247 245 256 269 281 299 311 308 289 265 264 280 346 22 23 34 17 1 358 358 358 355 356 1 0 0 358 351 345 352
214 217 220 221 219 217 229 237 240 235 235 229 228 242 249 250 252 257 264 274 281 288 292 283 290 33 40 338 23 90 58 29 14 6 5 4 13 11 5 3 357 350 350 356
211 209 213 221 217 210 224 233 225 225 224 210 214 233 251 253 244 239 237 252 254 251 256 258 220 129 133 214 23 91 88 59 40 21 19 18 12 5 360 360 358 353 355 355
213 210 209 214 227 233 222 213 205 217 222 208 210 226 239 250 240 219 221 264 280 265 249 246 122 173 188 169 72 90 102 85 55 36 30 19 10 3 0 2 355 347 350 351
212 208 213 211 213 246 247 212 201 205 213 218 221 223 226 237 236 237 238 236 248 258 250 185 209 210 190 120 101 109 101 73 41 32 29 16 7 1 354 352 345 340 342 345
215 211 207 208 211 227 253 226 207 202 209 216 217 220 223 227 220 217 255 248 227 232 190 208 238 215 145 104 115 119 112 99 51 329 337 325 324 331 331 333 333 334 335 339
202 205 205 197 166 166 223 244 233 222 219 228 226 219 211 219 243 234 228 241 239 240 190 227 226 175 107 100 112 111 115 141 284 300 313 324 333 335 329 323 324 324 326 329
187 182 174 170 192 219 225 213 209 225 226 239 247 237 221 208 211 217 204 210 210 168 114 208 179 120 98 114 127 132 154 234 251 179 240 315 321 324 322 318 314 314 317 320
182 193 208 217 220 219 199 180 194 212 203 225 257 238 215 193 166 154 150 160 169 137 102 96 113 106 106 125 134 144 167 267 350 358 312 298 301 310 311 311 309 310 312 314
173 181 188 224 229 204 191 190 201 212 204 201 218 216 187 160 136 131 129 117 105 103 96 84 85 110 117 121 123 127 130 151 290 295 289 284 285 289 297 302 305 309 313 317